Regional Weather Roundup
Issued by NWS

Home | Current Version | Previous Version | Graphics & Text | Print | Product List | Glossary On
Versions: 1 2 3 4 5 6 7 8 9 10 11 12 13 14 15 16 17 18 19 20 21 22 23 24 25 26 27 28 29 30 31 32 33 34 35 36 37 38 39 40 41 42 43 44 45 46 47 48 49 50
491
ASUS43 KBIS 241731
RWRND
NORTH DAKOTA REGIONAL WEATHER ROUNDUP
NATIONAL WEATHER SERVICE EASTERN NORTH DAKOTA/GRAND FORKS ND
1200 PM CDT TUE APR 24 2018

  NOTE: "FAIR" INDICATES FEW OR NO CLOUDS BELOW 12,000 FEET WITH NO
  SIGNIFICANT WEATHER AND/OR OBSTRUCTIONS TO VISIBILITY.

NDZ001>003-009>011-017-241800-
...NORTHWEST NORTH DAKOTA...

CITY           SKY/WX    TMP DP  RH WIND       PRES   REMARKS
WILLISTON      FAIR      53  25  33 S10       30.48F
MINOT          FAIR      54  23  30 NW13G22   30.44F
MINOT AFB      FAIR      53  24  32 N13G21    30.43F
$$

NDZ018>021-031>035-040>046-241800-
...SOUTHWEST NORTH DAKOTA...

CITY           SKY/WX    TMP DP  RH WIND       PRES   REMARKS
BISMARCK       FAIR      52  27  38 N15G25    30.45S
DICKINSON      FAIR      51  22  31 N12       30.46S
GARRISON         N/A     48  25  40 VRB7G17   30.46S
HETTINGER      FAIR      41  29  62 N10       30.50R
$$

NDZ004>008-012>016-024-026-027-054-241800-
...NORTHEAST NORTH DAKOTA...

CITY           SKY/WX    TMP DP  RH WIND       PRES   REMARKS
GRAND FORKS    FAIR      47  32  56 N21G29    30.39S
GRAND FORKS AF FAIR      48  29  46 N17G24    30.40S
DEVILS LAKE    FAIR      46  28  49 N15G23    30.43S
$$

NDZ022-023-025-028>030-036>039-047>053-241800-
...SOUTHEAST NORTH DAKOTA...

CITY           SKY/WX    TMP DP  RH WIND       PRES   REMARKS
JAMESTOWN      FAIR      49  31  49 N20       30.40R
FARGO          FAIR      50  35  56 N21G31    30.37R
WAHPETON       FAIR      46  36  66 N16       30.35F
$$




USA.gov is the U.S. government's official web portal to all federal, state and local government web resources and services.